Find Starlink 34347

NORAD ID: 64226 Int'l Des: 2025-117 Owner: SPXS Country: US Constellation: starlink operational
LEOCIRCULAR

現在のビュー

3D地球を読み込み中...

About Starlink 34347

Starlink 34347 (NORAD 64226) is a starlink constellation satellite (v2 mini) launched May 31, 2025 by SPXS of US. It operates in LEO, CIRCULAR orbit with a mass of 575.00 kg.

次回通過

Passes for default location (London). Set your location on the main map for personalized predictions.

高度履歴

Loading altitude history...

軌道要素

1 64226U 25117Z 26265.24903222 .00011123 00000-0 33984-3 0 9999
2 64226 53.1575 203.4941 0001237 90.0379 270.0765 15.34401504 74669
Epoch: Sep 22, 2026 • Age: 11 hours

現在のステータス

高度 465.4 km
遠地点 / 近地点 N/A
速度 7.64 km/s
衛星直下点 38.92°N, 20.41°W
打ち上げ日 May 31, 2025
運用期間 1.3 years
タイプ internet

技術仕様

分類 Payload
質量 575.00 kg
乾燥質量 530.00 kg
長さ 0.30 m
スパン 29.00 m
形状 ? Box + pan
製造者 SPXS
バスタイプ Starlink V2MO
フェーズステータス In Orbit
所有者/国 SPXS/US

Most Searched